TimeCDT,TemperatureF,Dew PointF,Humidity,Sea Level PressureIn,VisibilityMPH,Wind Direction,Wind SpeedMPH,Gust SpeedMPH,PrecipitationIn,Events,Conditions,WindDirDegrees,DateUTC
12:15 AM,62.6,60.8,94,30.17,10.0,Calm,Calm,-,N/A,,Unknown,0,2012-10-11 05:15:00
12:35 AM,62.6,60.8,94,30.16,10.0,Calm,Calm,-,N/A,,Unknown,0,2012-10-11 05:35:00
1:35 AM,60.8,59.0,94,30.15,10.0,Calm,Calm,-,N/A,,Unknown,0,2012-10-11 06:35:00
1:55 AM,62.6,60.8,94,30.16,10.0,Calm,Calm,-,N/A,,Unknown,0,2012-10-11 06:55:00
2:15 AM,60.8,60.8,100,30.16,10.0,North,3.5,-,N/A,,Unknown,360,2012-10-11 07:15:00
2:55 AM,62.6,60.8,94,30.15,10.0,Calm,Calm,-,N/A,,Unknown,0,2012-10-11 07:55:00
3:15 AM,60.8,59.0,94,30.15,7.0,Calm,Calm,-,N/A,,Unknown,0,2012-10-11 08:15:00
3:35 AM,60.8,60.8,100,30.15,10.0,Calm,Calm,-,N/A,,Unknown,0,2012-10-11 08:35:00
3:55 AM,60.8,59.0,94,30.15,4.0,Calm,Calm,-,N/A,,Mist,0,2012-10-11 08:55:00
4:15 AM,60.8,59.0,94,30.15,10.0,North,3.5,-,N/A,,Unknown,10,2012-10-11 09:15:00
4:35 AM,60.8,60.8,100,30.16,10.0,Calm,Calm,-,N/A,,Unknown,0,2012-10-11 09:35:00
4:55 AM,60.8,59.0,94,30.17,10.0,Calm,Calm,-,N/A,,Unknown,0,2012-10-11 09:55:00
5:15 AM,60.8,59.0,94,30.17,10.0,Calm,Calm,-,N/A,,Unknown,0,2012-10-11 10:15:00
5:35 AM,60.8,59.0,94,30.18,10.0,North,4.6,-,N/A,,Unknown,10,2012-10-11 10:35:00
5:55 AM,60.8,59.0,94,30.18,10.0,Calm,Calm,-,N/A,,Unknown,0,2012-10-11 10:55:00
6:15 AM,60.8,59.0,94,30.19,10.0,NNE,3.5,-,N/A,,Unknown,20,2012-10-11 11:15:00
6:35 AM,60.8,59.0,94,30.19,10.0,Calm,Calm,-,N/A,,Unknown,0,2012-10-11 11:35:00
6:55 AM,60.8,59.0,94,30.20,10.0,NE,3.5,-,N/A,,Unknown,40,2012-10-11 11:55:00
7:15 AM,60.8,59.0,94,30.20,10.0,Calm,Calm,-,N/A,,Unknown,0,2012-10-11 12:15:00
7:35 AM,60.8,60.8,100,30.20,10.0,Calm,Calm,-,N/A,,Unknown,0,2012-10-11 12:35:00
7:55 AM,64.4,60.8,88,30.21,10.0,Calm,Calm,-,N/A,,Unknown,0,2012-10-11 12:55:00
8:15 AM,64.4,60.8,88,30.22,10.0,Calm,Calm,-,N/A,,Unknown,0,2012-10-11 13:15:00
8:35 AM,68.0,62.6,83,30.23,10.0,NNE,4.6,-,N/A,,Unknown,30,2012-10-11 13:35:00
8:55 AM,68.0,62.6,83,30.23,10.0,North,-9999.0,-,N/A,,Unknown,0,2012-10-11 13:55:00
9:15 AM,69.8,62.6,78,30.24,10.0,North,-9999.0,-,N/A,,Unknown,0,2012-10-11 14:15:00
9:35 AM,73.4,62.6,69,30.24,10.0,ENE,6.9,-,N/A,,Unknown,60,2012-10-11 14:35:00
9:55 AM,73.4,62.6,69,30.24,10.0,East,6.9,-,N/A,,Unknown,80,2012-10-11 14:55:00
10:15 AM,77.0,62.6,61,30.24,10.0,East,5.8,-,N/A,,Unknown,80,2012-10-11 15:15:00
10:35 AM,77.0,62.6,61,30.24,10.0,ESE,6.9,-,N/A,,Unknown,110,2012-10-11 15:35:00
10:55 AM,78.8,59.0,51,30.24,10.0,East,8.1,-,N/A,,Unknown,100,2012-10-11 15:55:00
11:15 AM,78.8,59.0,51,30.24,10.0,ENE,5.8,-,N/A,,Unknown,70,2012-10-11 16:15:00
11:35 AM,78.8,59.0,51,30.24,10.0,ENE,6.9,-,N/A,,Unknown,70,2012-10-11 16:35:00
11:55 AM,78.8,60.8,54,30.23,10.0,East,8.1,-,N/A,,Unknown,90,2012-10-11 16:55:00
12:15 PM,78.8,60.8,54,30.23,10.0,East,6.9,-,N/A,,Unknown,90,2012-10-11 17:15:00
12:55 PM,80.6,60.8,51,30.21,10.0,SE,5.8,-,N/A,,Unknown,130,2012-10-11 17:55:00
1:15 PM,80.6,60.8,51,30.20,10.0,SE,10.4,-,N/A,,Unknown,140,2012-10-11 18:15:00
1:35 PM,78.8,60.8,54,30.19,10.0,SSE,10.4,-,N/A,,Unknown,150,2012-10-11 18:35:00
1:55 PM,78.8,60.8,54,30.19,10.0,SSE,10.4,-,N/A,,Unknown,150,2012-10-11 18:55:00
2:35 PM,78.8,60.8,54,30.18,10.0,SE,10.4,-,N/A,,Unknown,130,2012-10-11 19:35:00
2:55 PM,78.8,62.6,57,30.18,10.0,SE,10.4,16.1,N/A,,Unknown,140,2012-10-11 19:55:00
3:15 PM,78.8,60.8,54,30.18,10.0,SSE,9.2,-,N/A,,Unknown,150,2012-10-11 20:15:00
3:35 PM,78.8,62.6,57,30.18,10.0,SE,8.1,-,N/A,,Unknown,130,2012-10-11 20:35:00
3:55 PM,78.8,62.6,57,30.18,10.0,South,9.2,-,N/A,,Unknown,170,2012-10-11 20:55:00
4:15 PM,77.0,62.6,61,30.18,10.0,South,6.9,-,N/A,,Unknown,170,2012-10-11 21:15:00
4:35 PM,78.8,62.6,57,30.18,10.0,SSE,6.9,-,N/A,,Unknown,150,2012-10-11 21:35:00
5:15 PM,77.0,62.6,61,30.18,10.0,SSE,5.8,-,N/A,,Unknown,150,2012-10-11 22:15:00
5:35 PM,77.0,62.6,61,30.18,10.0,SSE,4.6,-,N/A,,Unknown,150,2012-10-11 22:35:00
5:55 PM,75.2,62.6,65,30.18,10.0,Calm,Calm,-,N/A,,Unknown,0,2012-10-11 22:55:00
6:35 PM,71.6,64.4,78,30.19,10.0,Calm,Calm,-,N/A,,Unknown,0,2012-10-11 23:35:00
6:55 PM,71.6,62.6,73,30.19,10.0,Calm,Calm,-,N/A,,Unknown,0,2012-10-11 23:55:00
7:15 PM,69.8,64.4,83,30.19,10.0,Calm,Calm,-,N/A,,Unknown,0,2012-10-12 00:15:00
7:35 PM,68.0,64.4,88,30.19,10.0,Calm,Calm,-,N/A,,Unknown,0,2012-10-12 00:35:00
8:15 PM,66.2,64.4,94,30.20,10.0,Calm,Calm,-,N/A,,Unknown,0,2012-10-12 01:15:00
8:35 PM,64.4,62.6,94,30.21,10.0,Calm,Calm,-,N/A,,Unknown,0,2012-10-12 01:35:00
8:55 PM,64.4,62.6,94,30.21,10.0,Calm,Calm,-,N/A,,Unknown,0,2012-10-12 01:55:00
9:15 PM,64.4,62.6,94,30.22,7.0,Calm,Calm,-,N/A,,Unknown,0,2012-10-12 02:15:00
9:35 PM,64.4,62.6,94,30.22,10.0,Calm,Calm,-,N/A,,Unknown,0,2012-10-12 02:35:00
9:55 PM,64.4,62.6,94,30.22,5.0,Calm,Calm,-,N/A,,Mist,0,2012-10-12 02:55:00
10:35 PM,62.6,62.6,100,30.22,5.0,Calm,Calm,-,N/A,,Mist,0,2012-10-12 03:35:00
10:55 PM,62.6,60.8,94,30.22,3.0,Calm,Calm,-,N/A,,Mist,0,2012-10-12 03:55:00
11:15 PM,62.6,60.8,94,30.22,0.5,Calm,Calm,-,N/A,Fog,Fog,0,2012-10-12 04:15:00
11:35 PM,62.6,60.8,94,30.22,3.0,Calm,Calm,-,N/A,,Mist,0,2012-10-12 04:35:00
11:55 PM,60.8,60.8,100,30.22,10.0,Calm,Calm,-,N/A,,Unknown,0,2012-10-12 04:55:00